This demonstration page uses our WeatherBlox Daily Observations layout. Learn more.

Left ArrowRight Arrow

34.74481, -87.66753

Hourly Observations for January 2, 2020

Temp ( °F °C ) Dew Point ( °F °C ) Humidity (%) Winds ( mph kmh ) Pressure ( in mb ) Visibility ( mi km ) Precip ( " mm )
12:53 am 00:53 Cloudy 51 10.6 32 0 48 48 S 5 7 29.92 1013 10 16 0.00 0.00
1:53 am 01:53 Cloudy 50 10 34 1.1 54 54 Calm 29.91 1013 10 16 0.00 0.00
2:53 am 02:53 Cloudy 50 10 35 1.7 57 57 SSW 6 9 29.92 1013 10 16 0.00 0.00
3:53 am 03:53 Cloudy 50 10 39 3.9 66 66 SSW 6 9 29.90 1013 10 16 0.00 0.00
4:53 am 04:53 Cloudy 49 9.4 41 5 74 74 E 3 6 29.91 1013 10 16 0.00 0.00
5:53 am 05:53 Cloudy with Rain 47 8.3 43 6.1 86 86 ESE 8 13 29.88 1012 8 13 0.05 1.27
6:04 am 06:04 Cloudy with Light Rain 47 8.3 43 6.1 86 86 ESE 7 11 29.90 1013 10 16 0.01 0.25
6:53 am 06:53 Cloudy with Light Rain 47 8.3 44 6.7 90 90 SE 6 9 29.89 1012 10 16 0.03 0.76
7:51 am 07:51 Cloudy with Rain 46 8 45 7 93 93 ESE 7 11 29.92 1013 5 8 0.06 1.52
7:53 am 07:53 Cloudy with Rain 47 8.3 44 6.7 90 90 ESE 6 9 29.90 1013 5 8 0.06 1.52
8:53 am 08:53 Cloudy with Light Rain 49 9.4 46 7.8 90 90 ESE 6 9 29.89 1012 10 16 0.03 0.76
9:53 am 09:53 Cloudy with Light Rain 50 10 48 8.9 93 93 SE 8 13 29.90 1012 5 8 0.08 2.03
10:53 am 10:53 Cloudy with Light Rain 52 11.1 49 9.4 89 89 ESE 5 7 29.85 1011 10 16 0.03 0.76
11:27 am 11:27 Cloudy with Heavy Rain 52 11.1 50 10 93 93 E 7 11 29.85 1011 2 3 0.09 2.29
11:48 am 11:48 Cloudy with Light Rain 54 12 52 11 94 94 ESE 9 15 29.80 1009 4 6 0.14 3.56
11:53 am 11:53 Cloudy with Light Rain 53 11.7 50 10 89 89 E 8 13 29.79 1009 3 5 0.14 3.56
12:02 pm 12:02 Cloudy with Heavy Rain 53 11.7 51 10.6 93 93 ESE 7 11 29.79 1009 2 3 0.04 1.02
12:07 pm 12:07 Cloudy with Heavy Rain 53 11.7 51 10.6 93 93 ESE 8 13 29.78 1009 2 3 0.06 1.52
12:18 pm 12:18 Cloudy with Heavy Rain 53 11.7 52 11.1 96 96 Calm 29.81 1010 3 4 0.10 2.54
12:26 pm 12:26 Cloudy with Heavy Rain 53 11.7 51 10.6 93 93 E 9 15 29.76 1008 1 2 0.22 5.59
12:37 pm 12:37 Cloudy with Rain 53 11.7 51 10.6 93 93 E 9 15 29.75 1008 3 5 0.25 6.35
12:53 pm 12:53 Cloudy with Light Rain 54 12.2 52 11.1 93 93 ESE 6 9 29.75 1007 4 6 0.26 6.60
1:02 pm 13:02 Cloudy with Light Rain 54 12.2 52 11.1 93 93 E 6 9 29.75 1008 4 6 0.00 0.00
1:21 pm 13:21 Cloudy with Light Rain 54 12.2 52 11.1 93 93 ESE 8 13 29.74 1007 3 4 0.02 0.51
1:34 pm 13:34 Cloudy with Light Rain 54 12.2 52 11.1 93 93 ESE 9 15 29.74 1007 4 6 0.03 0.76
1:44 pm 13:44 Cloudy with Light Rain 54 12.2 52 11.1 93 93 ESE 7 11 29.73 1007 4 6 0.03 0.76
1:53 pm 13:53 Cloudy 54 12.2 52 11.1 93 93 ESE 8 13 29.72 1006 7 11 0.03 0.76
2:53 pm 14:53 Cloudy with Light Rain 55 12.8 53 11.7 93 93 SE 8 13 29.70 1006 9 14 0.01 0.25
3:53 pm 15:53 Cloudy with Rain 57 13.9 53 11.7 87 87 SE 7 11 29.69 1005 3 5 0.03 0.76
4:01 pm 16:01 Cloudy with Light Rain 57 13.9 54 12.2 90 90 Calm 29.70 1006 3 4 0.00 0.00
4:28 pm 16:28 Cloudy with Heavy Rain 56 13.3 54 12.2 93 93 SE 3 6 29.70 1006 3 5 0.09 2.29
4:53 pm 16:53 Cloudy with Rain 56 13.3 54 12.2 93 93 SE 6 9 29.69 1005 6 10 0.15 3.81
5:26 pm 17:26 Cloudy with Heavy Rain 56 13.3 54 12.2 93 93 NNW 5 7 29.74 1007 3 4 0.10 2.54
5:33 pm 17:33 Cloudy with Light Rain 56 13.3 54 12.2 93 93 NNW 5 7 29.73 1007 6 10 0.11 2.79
5:41 pm 17:41 Cloudy with Heavy Rain 56 13.3 54 12.2 93 93 NNW 5 7 29.74 1007 4 6 0.15 3.81
5:53 pm 17:53 Cloudy with Rain 56 13.3 54 12.2 93 93 N 5 7 29.74 1007 4 6 0.19 4.83
6:33 pm 18:33 Cloudy with Heavy Rain 56 13.3 54 12.2 93 93 NE 5 7 29.75 1007 5 8 0.17 4.32
6:53 pm 18:53 Mostly Cloudy with Light Rain 56 13.3 54 12.2 93 93 ENE 9 15 29.72 1006 10 16 0.18 4.57
7:07 pm 19:07 Cloudy with Light Rain 56 13.3 54 12.2 93 93 E 9 15 29.73 1007 10 16 0.01 0.25
7:53 pm 19:53 Cloudy with Rain 55 12.8 53 11.7 93 93 undefined N/A 29.73 1007 8 13 0.08 2.03
8:53 pm 20:53 Mostly Cloudy with Rain 55 12.8 53 11.7 93 93 ESE 5 7 29.75 1007 8 13 0.09 2.29
9:18 pm 21:18 Cloudy with Heavy Rain 55 12.8 53 11.7 93 93 ESE 6 9 29.76 1008 6 10 0.10 2.54
9:31 pm 21:31 Cloudy with Light Rain 55 12.8 53 11.7 93 93 ESE 5 7 29.77 1008 9 14 0.12 3.05
9:53 pm 21:53 Cloudy with Heavy Rain 55 12.8 53 11.7 93 93 E 7 11 29.72 1006 6 10 0.19 4.83
10:15 pm 22:15 Cloudy 55 12.8 53 11.7 93 93 ESE 3 6 29.76 1008 10 16 0.01 0.25
10:43 pm 22:43 Cloudy with Rain 55 12.8 53 11.7 93 93 Calm 29.78 1009 6 10 0.03 0.76
10:53 pm 22:53 Cloudy with Light Rain 54 12.2 53 11.7 97 97 Calm 29.75 1008 6 10 0.05 1.27
11:00 pm 23:00 Cloudy with Light Rain 54 12.2 52 11.1 93 93 NE 6 9 29.74 1007 8 13 0.00 0.00
11:11 pm 23:11 Cloudy 54 12.2 52 11.1 93 93 E 5 7 29.74 1007 9 14 0.00 0.00
11:35 pm 23:35 Cloudy with Rain 54 12.2 53 11.7 97 97 Calm 29.78 1009 4 6 0.04 1.02
11:53 pm 23:53 Cloudy with Light Rain 54 12.2 52 11.1 93 93 E 3 6 29.76 1008 7 11 0.06 1.52

Powered by AerisWeather